EWG33E LPPS-LPMA

Flight info

Callsign EWG33E
Flight time 0h 21m
Altitude 15000
Route ILCAT DCT IBBAN
Aircraft A320/M-SDE3FGHIRWY/LB1

Departure

Time 2026-04-24 15:32
Airport Porto Santo Airport (LPPS)

Arrival

Time 2026-04-24 15:53
Airport Cristiano Ronaldo International Airport (LPMA)
Time Latitude Longitude Altitude Speed Heading
2026-04-24 14:55 33.07188 -16.34636 278 ft 0 kts 135°
2026-04-24 15:17 33.07198 -16.34649 282 ft 2 kts 135°
2026-04-24 15:17 33.07210 -16.34663 284 ft 2 kts 127°
2026-04-24 15:18 33.07220 -16.34679 285 ft 2 kts 127°
2026-04-24 15:18 33.07224 -16.34686 283 ft 0 kts 127°
2026-04-24 15:23 33.07226 -16.34688 279 ft 2 kts 127°
2026-04-24 15:23 33.07236 -16.34704 283 ft 2 kts 131°
2026-04-24 15:24 33.07262 -16.34727 286 ft 0 kts 175°
2026-04-24 15:27 33.07235 -16.34734 284 ft 8 kts 194°
2026-04-24 15:27 33.06963 -16.34873 270 ft 16 kts 268°
2026-04-24 15:28 33.06581 -16.34961 254 ft 19 kts 177°
2026-04-24 15:29 33.06298 -16.34950 243 ft 22 kts 175°
2026-04-24 15:30 33.06013 -16.34928 235 ft 14 kts 310°
2026-04-24 15:31 33.06079 -16.34945 237 ft 11 kts 356°
2026-04-24 15:32 33.09576 -16.35024 1565 ft 145 kts
2026-04-24 15:33 33.14846 -16.35162 2868 ft 235 kts 358°
2026-04-24 15:33 33.18924 -16.38291 5029 ft 261 kts 292°
2026-04-24 15:34 33.20385 -16.42312 6825 ft 266 kts 293°
2026-04-24 15:35 33.22669 -16.48481 9318 ft 276 kts 294°
2026-04-24 15:35 33.24261 -16.52762 10598 ft 296 kts 294°
2026-04-24 15:35 33.25131 -16.55101 10818 ft 319 kts 294°
2026-04-24 15:36 33.26054 -16.57588 10974 ft 343 kts 294°
2026-04-24 15:36 33.28061 -16.63017 11897 ft 364 kts 294°
2026-04-24 15:36 33.29087 -16.65799 12550 ft 368 kts 294°
2026-04-24 15:37 33.30125 -16.68616 13222 ft 372 kts 294°
2026-04-24 15:37 33.31180 -16.71473 13841 ft 376 kts 294°
2026-04-24 15:37 33.31884 -16.73375 14221 ft 379 kts 294°
2026-04-24 15:37 33.33312 -16.77238 14934 ft 384 kts 294°
2026-04-24 15:38 33.34380 -16.80171 15114 ft 385 kts 291°
2026-04-24 15:38 33.35007 -16.83260 14935 ft 380 kts 275°
2026-04-24 15:38 33.34805 -16.86394 14463 ft 377 kts 257°
2026-04-24 15:38 33.33806 -16.89265 13997 ft 371 kts 239°
2026-04-24 15:39 33.32185 -16.91579 13466 ft 359 kts 223°
2026-04-24 15:39 33.30165 -16.93189 12974 ft 349 kts 207°
2026-04-24 15:39 33.27891 -16.94064 12464 ft 341 kts 191°
2026-04-24 15:39 33.25553 -16.94168 11960 ft 333 kts 175°
2026-04-24 15:40 33.23331 -16.93530 11475 ft 327 kts 159°
2026-04-24 15:40 33.21357 -16.92226 10986 ft 320 kts 144°
2026-04-24 15:40 33.19609 -16.90606 10510 ft 313 kts 143°
2026-04-24 15:40 33.17923 -16.89039 10043 ft 307 kts 143°
2026-04-24 15:41 33.16246 -16.87487 9519 ft 302 kts 143°
2026-04-24 15:41 33.14587 -16.85952 9004 ft 298 kts 143°
2026-04-24 15:41 33.12973 -16.84459 8490 ft 295 kts 143°
2026-04-24 15:41 33.11350 -16.82957 7999 ft 294 kts 143°
2026-04-24 15:42 33.09724 -16.81456 7496 ft 293 kts 143°
2026-04-24 15:42 33.08131 -16.79990 7018 ft 292 kts 143°
2026-04-24 15:42 33.06522 -16.78508 6526 ft 291 kts 143°
2026-04-24 15:42 33.04919 -16.77033 6017 ft 290 kts 144°
2026-04-24 15:43 33.03861 -16.76058 5677 ft 289 kts 143°
2026-04-24 15:43 33.02274 -16.74598 5174 ft 287 kts 143°
2026-04-24 15:43 33.00700 -16.73150 4654 ft 284 kts 143°
2026-04-24 15:43 32.99139 -16.71716 4154 ft 282 kts 143°
2026-04-24 15:44 32.97592 -16.70295 3643 ft 280 kts 142°
2026-04-24 15:44 32.96054 -16.68886 3158 ft 278 kts 142°
2026-04-24 15:44 32.94554 -16.67514 3015 ft 268 kts 142°
2026-04-24 15:44 32.93075 -16.66162 3025 ft 268 kts 142°
2026-04-24 15:45 32.91597 -16.64809 3024 ft 267 kts 142°
2026-04-24 15:45 32.90156 -16.63484 3019 ft 253 kts 142°
2026-04-24 15:45 32.88807 -16.62246 3021 ft 246 kts 142°
2026-04-24 15:45 32.87426 -16.61061 3022 ft 245 kts 152°
2026-04-24 15:46 32.85816 -16.60440 3024 ft 244 kts 174°
2026-04-24 15:46 32.84126 -16.60584 3021 ft 245 kts 197°
2026-04-24 15:46 32.82617 -16.61437 3019 ft 238 kts 216°
2026-04-24 15:46 32.81299 -16.62536 3015 ft 227 kts 216°
2026-04-24 15:47 32.80009 -16.63605 3016 ft 225 kts 216°
2026-04-24 15:47 32.78715 -16.64674 3015 ft 225 kts 216°
2026-04-24 15:47 32.77427 -16.65737 3003 ft 225 kts 216°
2026-04-24 15:47 32.76152 -16.66791 2699 ft 224 kts 215°
2026-04-24 15:48 32.74867 -16.67850 2328 ft 225 kts 216°
2026-04-24 15:48 32.73575 -16.68916 1980 ft 226 kts 215°
2026-04-24 15:48 32.72314 -16.69959 1815 ft 211 kts 215°
2026-04-24 15:48 32.71203 -16.70881 1661 ft 188 kts 214°
2026-04-24 15:49 32.70154 -16.71749 1391 ft 178 kts 214°
2026-04-24 15:49 32.69177 -16.72555 1125 ft 167 kts 214°
2026-04-24 15:49 32.68217 -16.73317 887 ft 164 kts 206°
2026-04-24 15:49 32.67159 -16.73841 750 ft 168 kts 208°
2026-04-24 15:50 32.66205 -16.74624 641 ft 167 kts 221°
2026-04-24 15:50 32.65358 -16.75545 677 ft 165 kts 231°
2026-04-24 15:50 32.64709 -16.76652 944 ft 159 kts 243°
2026-04-24 15:50 32.64372 -16.77848 1131 ft 151 kts 267°
2026-04-24 15:51 32.64539 -16.79051 1187 ft 148 kts 295°
2026-04-24 15:51 32.65253 -16.79870 1038 ft 144 kts 340°
2026-04-24 15:51 32.66223 -16.80015 753 ft 141 kts 356°
2026-04-24 15:51 32.67184 -16.80110 487 ft 132 kts
2026-04-24 15:52 32.67969 -16.79622 477 ft 139 kts 54°
2026-04-24 15:52 32.68606 -16.78812 307 ft 134 kts 35°
2026-04-24 15:52 32.69266 -16.78058 186 ft 128 kts 43°
2026-04-24 15:52 32.69785 -16.77453 176 ft 70 kts 44°
2026-04-24 15:53 32.69949 -16.77229 176 ft 20 kts 86°
2026-04-24 15:53 32.69898 -16.77169 176 ft 9 kts 168°
2026-04-24 15:53 32.69842 -16.77178 176 ft 7 kts 207°
2026-04-24 15:53 32.69808 -16.77215 176 ft 6 kts 227°
2026-04-24 15:54 32.69781 -16.77249 176 ft 5 kts 227°
2026-04-24 15:54 32.69724 -16.77322 176 ft 18 kts 227°
2026-04-24 15:54 32.69642 -16.77423 176 ft 16 kts 223°
2026-04-24 15:54 32.69567 -16.77511 176 ft 14 kts 226°
2026-04-24 15:55 32.69502 -16.77594 176 ft 13 kts 227°
2026-04-24 15:55 32.69443 -16.77669 176 ft 12 kts 227°
2026-04-24 15:55 32.69387 -16.77719 176 ft 6 kts 163°
2026-04-24 15:55 32.69375 -16.77689 176 ft 4 kts 117°
2026-04-24 15:56 32.69362 -16.77670 176 ft 3 kts 130°
2026-04-24 15:56 32.69359 -16.77667 176 ft 0 kts 135°